Location: Ostrava
(49.8330°N, 18.2830°E)
Time: 04:33:31
(UTC+02:00)

ISS - Pass Details

Date: 19 May 2021
Orbit: 417 x 422 km, 51.6° (Epoch: 13 June)

Event Time Altitude Azimuth Distance (km) Brightness Sun altitude
Rises 23:43:10 0° 282° (WNW) 2,368 0.4 -18.9°
Reaches altitude 10° 23:45:16 10° 285° (WNW) 1,504 -0.6 -19.0°
Maximum altitude 23:48:38 68° 8° (N) 458 -3.5 -19.2°
Enters shadow 23:50:11 29° 85° (E) 805 -2.4 -19.2°
